Temp
72 76 80 80 79 79 79 79 79 79 79 79 79 79 78 78 78 79 78 78 78 79 79 79 79 79 79 79 79 78 78 78 78 79 79 79 79 79 79 79 79 79 79
75 76 79 79 79 79 79 79 79 79 79 79 79 78 78 78 78 78 78 78 78 79 79 79 79 79 79 79 79 78 78 78 78 78 78 78 79 79 79 79 79 78 78
76 77 78 79 79 79 79 79 78 78 78 78 78 78 78 78 78 78 78 78 79 79 79 80 80 79 79 79 78 78 78 77 78 78 79 75 77 79 79 79 79 79 78
77 76 77 79 79 79 79 78 78 78 78 78 78 78 78 78 78 78 78 78 79 80 80 80 80 79 79 79 78 77 77 77 77 78 74 75 77 79 79 80 79 79 78
77 77 77 78 79 79 79 78 78 78 78 78 78 78 78 78 78 77 78 78 79 80 80 80 80 79 78 78 77 77 77 77 77 76 74 74 74 78 79 79 79 79 78
76 76 77 78 78 79 79 78 78 78 78 78 78 78 78 78 77 77 77 78 79 80 80 80 79 78 78 78 77 77 76 76 76 75 74 75 74 76 79 78 78 78 77
75 75 77 78 78 79 79 78 78 78 78 77 78 78 78 77 77 77 77 78 79 79 79 79 78 77 77 77 77 76 76 77 75 74 74 74 74 75 78 78 78 78 77
74 74 76 78 78 78 78 78 78 77 77 77 77 77 77 77 77 77 77 78 78 78 79 78 77 77 76 76 77 76 76 76 75 73 73 74 74 75 78 78 78 77 77
73 72 74 76 77 78 78 77 77 77 77 77 77 77 77 77 77 77 77 77 77 77 77 77 77 76 76 76 76 76 76 76 74 73 73 74 74 76 78 78 78 78 77
70 71 71 72 74 75 75 77 77 77 76 76 76 76 76 76 76 76 75 76 77 77 77 76 76 76 75 75 75 75 76 76 74 72 73 73 74 77 78 79 78 78 77
71 68 69 70 71 72 73 75 77 77 77 76 76 76 75 74 74 75 75 75 76 76 76 76 76 75 75 75 75 76 76 72 72 72 73 72 74 77 78 79 78 78 77
69 68 68 69 71 71 75 72 74 73 75 75 75 74 75 74 71 72 74 75 76 76 76 76 75 75 76 72 72 76 73 72 72 72 73 73 75 77 78 78 78 78 77
75 73 71 71 70 71 73 69 70 70 73 73 71 72 74 71 70 71 69 72 70 75 71 74 73 72 71 70 70 70 71 71 71 72 73 75 75 77 78 78 78 78 77
74 76 72 69 68 68 68 68 68 69 68 68 69 68 69 67 67 67 67 67 67 68 68 68 68 69 69 69 69 69 70 70 70 71 72 74 75 77 78 79 78 78 77
71 73 71 70 70 70 69 69 69 69 69 68 68 67 67 67 66 66 66 66 66 66 67 66 66 67 68 68 69 69 69 70 70 71 71 73 74 75 77 79 78 79 78
75 74 74 72 71 71 71 69 70 71 71 69 69 69 68 68 67 66 66 66 64 65 66 66 66 66 67 68 68 68 69 70 70 71 72 72 73 74 75 77 79 79 79
75 77 74 72 71 70 71 71 73 73 72 71 71 70 69 68 66 68 66 65 66 64 65 65 65 65 65 66 67 68 68 69 70 70 71 72 72 73 75 76 77 78 78
72 74 76 78 74 73 73 76 76 74 73 73 72 71 70 69 68 66 66 66 65 64 65 66 64 64 65 65 66 66 67 68 69 70 71 72 71 71 74 75 76 77 77
71 71 72 73 74 73 74 74 72 71 74 75 73 72 70 70 69 67 66 66 64 64 65 66 64 66 64 64 65 65 66 67 68 71 70 70 70 71 71 72 73 73 76
69 69 69 71 72 71 71 71 69 70 72 72 73 73 70 69 69 67 67 66 65 64 64 65 64 64 64 65 67 67 66 67 68 69 70 69 69 71 71 70 70 72 73
67 67 67 67 71 73 69 69 69 69 69 70 71 72 70 70 69 67 67 66 65 65 65 65 65 63 62 64 65 64 65 67 67 67 68 68 68 70 70 69 69 69 70
65 65 65 65 68 71 77 71 71 71 71 72 71 70 70 70 69 69 68 66 65 66 64 64 64 62 63 64 64 63 62 64 66 67 67 67 67 68 68 69 68 68 69
63 64 66 65 66 67 71 69 66 66 66 68 68 69 70 71 70 69 68 68 66 67 65 65 65 64 62 62 65 66 60 60 62 64 65 66 66 66 66 67 68 68 68
62 64 63 64 65 68 66 68 67 73 72 75 77 72 69 71 71 70 69 68 67 67 66 66 66 65 64 62 63 65 66 64 62 60 62 64 64 65 65 65 67 68 68
61 60 60 60 62 66 66 68 71 71 75 75 67 69 68 67 70 71 70 68 67 67 68 66 65 64 65 64 64 64 65 64 65 61 60 61 63 64 65 65 66 66 68
58 58 58 59 59 63 65 67 69 71 72 66 64 66 66 64 65 67 69 69 68 67 67 66 66 65 65 66 66 65 64 63 62 61 62 60 61 62 63 64 64 65 65
MSLP
1005.93 1006.31 1006.87 1007.40 1007.93 1008.14 1008.29 1008.38 1008.66 1009.05 1009.24 1009.76 1010.08 1010.30 1010.66 1010.95 1011.43 1011.79 1012.16 1012.52 1012.88 1013.15 1013.26 1013.51 1013.71 1013.93 1014.18 1014.33 1014.53 1014.71 1014.85 1014.89 1014.98 1015.09 1015.12 1015.17 1015.24 1015.31 1015.39 1015.45 1015.62 1015.76 1015.69
1004.56 1005.58 1006.47 1007.09 1007.65 1007.89 1008.29 1008.63 1008.90 1009.32 1009.52 1009.88 1010.08 1010.38 1010.76 1011.08 1011.54 1012.00 1012.29 1012.65 1012.88 1013.19 1013.36 1013.64 1013.87 1014.07 1014.26 1014.48 1014.71 1014.86 1015.00 1015.12 1015.22 1015.32 1015.39 1015.39 1015.42 1015.47 1015.54 1015.59 1015.66 1015.80 1015.88
1004.40 1005.56 1006.33 1006.55 1007.24 1007.69 1008.01 1008.51 1008.91 1009.22 1009.54 1009.98 1010.31 1010.64 1010.98 1011.27 1011.68 1012.04 1012.39 1012.81 1013.07 1013.36 1013.44 1013.78 1013.97 1014.21 1014.34 1014.52 1014.77 1014.90 1015.04 1015.22 1015.30 1015.44 1015.57 1015.70 1015.69 1015.64 1015.62 1015.69 1015.70 1015.71 1015.84
1003.79 1005.08 1005.83 1006.18 1006.56 1007.22 1007.71 1008.30 1008.71 1009.06 1009.48 1009.81 1010.18 1010.81 1011.13 1011.35 1011.73 1012.12 1012.42 1012.82 1013.10 1013.37 1013.68 1013.98 1014.11 1014.27 1014.50 1014.67 1014.81 1015.02 1015.15 1015.38 1015.44 1015.48 1015.72 1015.80 1015.81 1015.71 1015.67 1015.63 1015.75 1015.83 1015.83
1004.13 1005.35 1005.97 1006.13 1006.07 1006.68 1007.38 1007.90 1008.39 1008.85 1009.36 1009.70 1010.12 1010.65 1011.15 1011.62 1011.79 1012.07 1012.38 1012.77 1013.11 1013.47 1013.72 1014.02 1014.31 1014.53 1014.75 1014.93 1015.04 1015.15 1015.23 1015.32 1015.40 1015.66 1015.81 1015.79 1015.71 1015.68 1015.79 1015.80 1015.83 1015.95 1015.96
1004.10 1005.18 1005.95 1006.32 1006.13 1006.31 1007.09 1007.79 1008.36 1008.78 1009.28 1009.75 1010.32 1010.68 1011.03 1011.58 1011.90 1012.17 1012.48 1012.80 1012.97 1013.35 1013.71 1013.97 1014.24 1014.54 1014.70 1014.94 1015.17 1015.38 1015.46 1015.55 1015.57 1015.73 1015.86 1015.85 1015.78 1015.74 1015.83 1015.97 1015.99 1016.00 1016.09
1004.46 1005.20 1006.04 1006.56 1006.70 1006.34 1006.70 1007.58 1008.06 1008.63 1009.15 1009.47 1010.03 1010.60 1011.17 1011.49 1011.95 1012.15 1012.45 1012.77 1012.89 1013.18 1013.56 1013.94 1014.23 1014.47 1014.64 1014.91 1015.02 1015.18 1015.40 1015.67 1015.73 1015.85 1015.90 1015.89 1015.83 1015.84 1015.75 1015.86 1015.94 1016.05 1016.04
1005.00 1005.60 1006.22 1006.90 1007.12 1006.62 1006.97 1007.42 1007.91 1008.39 1008.97 1009.38 1009.82 1010.40 1010.89 1011.35 1011.77 1012.08 1012.33 1012.57 1012.97 1013.19 1013.40 1013.60 1014.02 1014.45 1014.66 1014.91 1015.12 1015.14 1015.30 1015.53 1015.76 1015.97 1015.95 1015.86 1015.79 1015.82 1015.77 1015.84 1015.96 1016.03 1016.04
1005.28 1005.88 1006.50 1006.93 1007.31 1007.47 1007.59 1007.76 1008.12 1008.53 1008.85 1009.21 1009.66 1010.10 1010.54 1011.06 1011.58 1011.82 1012.13 1012.35 1012.71 1013.20 1013.52 1013.75 1013.88 1014.09 1014.45 1014.66 1014.99 1015.07 1015.23 1015.38 1015.58 1015.80 1015.96 1015.84 1015.82 1015.57 1015.54 1015.69 1015.86 1015.93 1016.01
1005.57 1005.95 1006.59 1007.15 1007.38 1007.41 1007.62 1007.98 1008.31 1008.68 1008.92 1009.29 1009.69 1010.03 1010.51 1010.96 1011.37 1011.77 1011.99 1012.24 1012.59 1012.82 1013.14 1013.57 1013.77 1013.96 1014.19 1014.42 1014.78 1014.95 1015.03 1015.26 1015.58 1015.71 1015.70 1015.59 1015.72 1015.81 1015.34 1015.45 1015.81 1015.85 1015.91
1006.13 1006.38 1006.64 1007.35 1007.41 1007.47 1007.57 1008.00 1008.45 1008.95 1009.29 1009.61 1010.00 1010.41 1010.73 1011.12 1011.41 1011.68 1012.01 1012.29 1012.50 1012.79 1012.96 1013.32 1013.57 1013.72 1013.97 1014.26 1014.57 1014.83 1014.90 1015.22 1015.41 1015.49 1015.52 1015.68 1015.67 1015.69 1015.52 1015.27 1015.48 1015.72 1015.80
1006.06 1006.40 1006.58 1007.13 1007.34 1007.44 1007.36 1007.94 1008.29 1009.03 1009.31 1009.73 1009.94 1010.33 1010.68 1010.86 1011.17 1011.60 1011.77 1012.25 1012.39 1012.58 1012.76 1013.13 1013.37 1013.47 1013.78 1014.08 1014.37 1014.50 1014.73 1015.02 1015.27 1015.39 1015.42 1015.38 1015.28 1015.40 1015.30 1015.22 1015.37 1015.57 1015.66
1004.56 1005.75 1006.26 1006.78 1007.23 1007.21 1007.35 1007.76 1008.25 1008.83 1009.21 1009.63 1009.96 1010.33 1010.85 1011.42 1011.50 1011.71 1011.80 1012.11 1012.47 1012.43 1012.83 1012.84 1013.12 1013.24 1013.64 1013.96 1014.20 1014.40 1014.55 1014.75 1015.10 1015.21 1015.07 1015.07 1015.20 1015.20 1015.00 1015.04 1015.11 1015.21 1015.48
1005.09 1005.14 1006.23 1006.52 1007.02 1006.98 1007.27 1007.54 1008.21 1008.75 1009.06 1009.68 1009.95 1010.41 1010.63 1011.07 1011.69 1011.81 1011.83 1011.94 1012.26 1012.31 1012.70 1012.88 1012.97 1013.12 1013.39 1013.78 1013.85 1014.03 1014.26 1014.41 1014.69 1014.92 1014.94 1014.90 1014.90 1015.00 1014.77 1014.76 1014.78 1014.92 1015.13
1005.17 1005.54 1005.63 1006.62 1006.79 1006.60 1007.00 1007.21 1007.78 1008.51 1008.45 1009.12 1009.72 1009.77 1010.45 1010.72 1011.08 1011.48 1011.59 1011.88 1011.97 1012.02 1012.39 1012.77 1012.91 1013.03 1013.19 1013.51 1013.64 1013.73 1013.90 1014.03 1014.19 1014.33 1014.48 1014.42 1014.49 1014.62 1014.60 1014.45 1014.62 1014.76 1015.04
1004.31 1004.97 1004.78 1006.19 1006.53 1006.45 1006.47 1006.91 1007.09 1007.63 1007.81 1008.24 1008.78 1008.93 1009.47 1009.76 1010.13 1010.67 1011.11 1011.43 1011.63 1011.63 1012.13 1012.50 1012.56 1012.89 1012.96 1013.24 1013.48 1013.51 1013.54 1013.67 1013.73 1013.91 1014.03 1014.05 1014.09 1013.99 1014.14 1014.08 1014.21 1014.47 1014.71
1003.96 1004.43 1003.44 1004.71 1005.91 1005.87 1006.03 1006.16 1006.84 1006.78 1007.36 1007.65 1007.74 1008.20 1008.25 1008.87 1009.18 1009.79 1010.48 1010.62 1011.02 1010.88 1011.57 1012.16 1012.26 1012.61 1012.86 1013.04 1013.09 1013.30 1013.21 1013.31 1013.40 1013.44 1013.49 1013.63 1013.70 1013.52 1013.67 1013.79 1013.72 1014.05 1014.41
1003.78 1003.41 1003.87 1004.12 1005.07 1005.39 1005.66 1005.26 1005.83 1006.11 1006.43 1006.65 1007.31 1007.68 1008.18 1008.40 1008.56 1009.36 1009.89 1010.07 1010.60 1010.68 1011.23 1011.87 1012.09 1012.37 1012.65 1012.69 1012.71 1012.92 1012.91 1012.87 1012.87 1012.95 1013.07 1013.25 1013.20 1013.27 1013.24 1013.11 1012.72 1013.49 1013.87
1003.70 1003.60 1003.80 1004.12 1004.21 1004.54 1005.06 1005.77 1005.33 1006.18 1006.08 1005.06 1005.94 1006.77 1006.60 1007.95 1008.20 1008.93 1009.28 1009.72 1010.26 1010.41 1010.94 1011.37 1011.77 1011.80 1012.19 1012.26 1012.43 1012.58 1012.63 1012.55 1012.51 1012.46 1012.57 1012.69 1012.81 1012.83 1012.82 1012.96 1012.83 1012.87 1013.29
1003.10 1003.51 1003.46 1003.36 1003.65 1003.98 1004.54 1005.27 1005.35 1005.76 1005.88 1006.02 1005.69 1005.43 1006.19 1007.14 1007.66 1008.19 1008.42 1009.11 1009.67 1010.16 1010.71 1010.92 1011.23 1011.54 1011.64 1011.69 1011.87 1012.03 1012.16 1012.00 1012.09 1012.17 1012.17 1012.27 1012.37 1012.39 1012.44 1012.54 1012.65 1012.61 1012.85
1002.80 1002.75 1002.96 1003.67 1002.72 1003.39 1004.05 1004.47 1005.15 1005.38 1005.22 1005.09 1005.09 1005.28 1006.15 1006.10 1006.53 1007.47 1008.05 1008.43 1008.91 1009.68 1009.74 1010.33 1010.95 1011.20 1011.40 1011.52 1011.82 1011.76 1011.64 1011.52 1011.71 1011.59 1011.72 1012.04 1012.34 1012.23 1012.21 1012.29 1012.44 1012.47 1012.52
1003.54 1002.68 1002.75 1002.93 1002.87 1002.66 1002.58 1003.13 1003.62 1003.93 1004.09 1004.29 1004.57 1005.09 1005.22 1006.02 1006.53 1006.74 1007.10 1007.68 1008.49 1009.22 1009.47 1009.78 1010.31 1010.81 1010.98 1011.14 1011.30 1011.70 1011.54 1011.48 1011.33 1011.28 1011.55 1011.76 1011.90 1012.01 1012.04 1012.07 1012.23 1012.25 1012.29
1004.06 1003.27 1002.66 1002.39 1002.56 1002.77 1002.17 1002.62 1003.22 1003.81 1003.83 1003.98 1004.12 1004.27 1004.46 1005.09 1005.76 1006.06 1006.28 1007.01 1007.89 1008.37 1008.75 1009.06 1009.56 1009.80 1010.36 1010.70 1010.62 1010.75 1011.16 1011.27 1011.37 1011.41 1011.50 1011.61 1011.73 1011.81 1011.81 1011.77 1011.88 1011.91 1011.96
1004.10 1003.54 1003.18 1002.41 1002.09 1001.71 1002.03 1002.44 1002.47 1002.55 1002.82 1002.30 1002.53 1003.10 1003.78 1004.23 1004.67 1005.20 1005.72 1006.32 1007.04 1007.53 1007.91 1008.13 1008.63 1009.02 1009.62 1010.01 1010.66 1010.37 1010.29 1010.56 1011.04 1011.65 1011.69 1011.70 1011.75 1011.70 1011.62 1011.61 1011.65 1011.62 1011.67
1003.70 1003.71 1003.23 1002.56 1001.85 1001.54 1001.54 1001.43 1001.41 1001.71 1001.66 1001.77 1002.25 1002.72 1003.05 1003.41 1003.89 1004.32 1005.04 1005.65 1006.16 1006.69 1006.86 1007.20 1007.85 1008.43 1009.00 1009.14 1009.58 1009.74 1010.16 1010.49 1010.63 1011.02 1011.62 1011.71 1011.64 1011.51 1011.42 1011.57 1011.57 1011.51 1011.49
1003.79 1003.58 1003.09 1002.64 1001.97 1001.47 1001.34 1000.58 1000.66 1000.97 1001.06 1001.85 1002.06 1002.27 1002.57 1003.05 1003.50 1003.84 1004.30 1004.83 1005.40 1005.78 1006.11 1006.47 1006.98 1007.72 1008.15 1008.27 1008.68 1008.71 1009.12 1009.73 1010.22 1010.59 1011.07 1011.43 1011.44 1011.37 1011.34 1011.43 1011.35 1011.40 1011.32
Wind_Speed
9 16 25 21 21 21 20 19 20 20 20 19 19 20 19 19 17 17 16 15 13 13 13 11 10 9 8 8 8 8 7 8 8 9 8 8 6 7 8 8 8 6 9
15 19 27 23 22 23 22 20 19 18 19 19 19 18 18 18 17 16 15 14 13 13 12 10 9 8 8 7 7 8 7 6 6 7 5 6 6 5 6 7 8 7 8
19 18 21 24 23 23 23 22 21 20 19 18 18 18 18 17 16 16 15 13 13 12 11 10 10 8 8 8 8 8 7 5 5 4 4 2 2 3 4 6 8 9 10
22 19 19 25 25 24 24 23 22 21 20 19 19 18 17 17 16 16 15 14 13 12 11 10 9 9 8 7 7 7 6 4 4 5 3 1 2 1 3 5 8 8 9
19 16 16 25 26 25 24 23 23 22 21 20 20 19 18 17 16 16 15 14 13 12 11 10 8 8 7 7 6 6 5 4 4 5 2 2 2 2 3 4 6 7 7
19 16 17 22 25 25 24 23 22 22 21 21 20 19 19 17 16 15 14 14 13 13 11 10 9 8 8 6 5 4 3 3 5 3 3 4 1 4 4 4 5 6 6
16 13 14 21 21 23 24 23 22 22 21 21 20 19 18 17 16 15 15 14 14 13 12 10 9 8 7 6 5 5 3 1 3 2 3 3 4 5 6 7 7 7 7
13 10 12 17 17 21 22 22 21 21 21 21 20 20 18 17 17 15 15 14 13 12 12 12 10 8 7 6 6 4 2 1 2 1 3 3 4 7 8 7 5 7 8
8 8 8 10 13 15 16 17 19 19 20 20 20 20 19 18 17 16 15 14 14 12 11 11 11 10 9 8 7 5 3 4 1 0 3 3 9 5 10 8 7 6 8
7 7 7 5 7 9 9 14 15 17 18 18 18 18 17 16 16 15 13 13 13 13 12 11 11 11 10 9 8 7 6 7 1 1 3 3 8 11 10 8 8 8 8
5 5 6 6 6 7 6 9 11 14 13 13 13 14 11 7 8 11 11 13 13 13 13 12 12 11 11 10 10 9 8 2 3 3 2 6 6 11 12 9 8 9 9
8 6 7 7 9 8 8 6 7 5 6 8 8 8 8 9 6 7 10 13 13 13 13 13 12 12 12 4 4 9 3 3 3 3 2 8 7 10 12 10 9 8 9
16 10 11 11 9 10 8 5 4 3 5 6 4 5 7 4 3 3 3 4 4 10 4 7 7 5 5 4 5 4 5 4 2 3 5 8 8 10 10 12 10 8 8
11 14 8 8 7 6 4 5 5 5 3 3 3 4 5 4 3 3 3 4 4 3 5 5 3 4 5 5 6 6 6 4 3 3 4 9 9 11 11 13 11 10 10
8 7 9 8 10 9 8 6 6 6 5 5 5 6 5 5 5 4 5 4 5 4 5 5 4 4 5 6 6 7 6 6 6 4 4 9 10 11 13 14 11 10 10
10 13 12 12 11 9 11 8 8 7 8 8 7 8 10 8 7 7 6 6 5 5 4 5 5 5 5 5 6 7 7 6 7 6 5 5 10 11 14 15 11 11 11
11 11 15 16 12 11 12 10 8 9 7 8 9 10 13 12 10 10 7 7 7 6 6 5 4 3 4 5 7 6 6 7 7 7 6 5 6 9 12 12 13 12 12
5 10 10 12 15 13 13 12 10 9 9 8 7 6 10 10 10 8 6 7 5 5 5 5 4 4 6 6 5 6 6 6 8 8 6 5 5 3 5 14 14 12 14
7 6 7 7 10 13 11 6 5 4 7 9 9 9 11 11 10 8 7 5 6 5 6 5 4 6 4 6 6 4 5 6 6 6 7 7 6 6 5 6 10 11 14
7 8 9 10 11 9 5 4 3 4 7 4 9 9 10 8 9 9 6 7 7 5 5 5 6 6 3 5 5 4 4 5 5 6 7 4 6 8 6 7 5 5 13
8 7 9 8 12 9 4 4 3 6 3 3 3 3 7 10 11 10 7 7 7 8 9 8 5 5 5 3 2 2 3 6 6 6 4 4 7 8 8 6 4 4 5
10 9 7 8 10 10 9 5 5 5 4 3 4 7 9 9 10 9 9 7 8 6 7 9 8 3 3 6 3 1 2 1 3 3 3 4 7 5 7 8 7 7 6
9 10 10 8 9 8 11 3 3 2 2 2 3 5 10 11 10 11 10 8 8 8 8 9 10 9 5 5 6 4 2 4 0 2 1 2 5 5 6 6 6 7 8
8 8 10 10 10 9 8 6 8 10 9 7 9 6 7 11 11 10 10 10 10 8 9 10 8 8 5 5 2 6 1 3 3 1 1 1 2 4 4 2 4 6 6
7 8 8 10 10 13 9 10 8 10 9 6 3 6 7 7 10 10 11 10 10 9 9 10 10 8 7 5 4 3 3 1 1 3 2 2 2 2 1 2 3 4 4
8 7 7 8 9 11 12 10 11 14 11 6 5 6 5 4 5 8 8 9 9 8 8 8 9 11 11 6 6 4 4 4 3 3 2 2 2 1 1 2 2 3 3
Wind_Direction
176 162 171 165 157 149 146 142 137 135 131 131 130 128 130 130 132 135 135 136 137 141 139 137 132 126 120 113 108 101 96 98 94 89 90 90 103 123 118 118 121 129 126
144 160 169 167 159 152 149 145 143 139 136 136 136 133 132 134 137 139 142 145 143 146 142 140 138 134 128 124 115 106 99 90 90 92 92 84 91 111 148 136 146 140 140
149 159 170 165 161 156 152 151 147 146 142 141 138 138 140 141 143 146 147 147 147 150 150 152 148 140 132 122 107 104 101 97 93 93 81 61 57 118 129 162 162 153 150
149 162 170 169 162 160 155 152 152 149 150 148 145 148 149 150 151 151 150 153 155 156 158 157 150 139 130 119 116 106 100 89 81 76 64 27 306 164 146 164 173 167 165
144 160 172 172 164 161 159 157 156 153 155 153 154 155 155 158 157 157 156 158 159 162 162 158 149 140 135 130 128 122 116 100 71 61 48 341 227 240 175 169 175 175 171
148 158 176 178 167 161 161 160 159 156 158 157 160 160 160 163 162 161 162 164 163 165 168 165 159 156 151 146 140 130 115 87 67 44 7 358 319 224 192 197 189 188 182
147 153 172 180 176 163 162 165 162 161 163 162 163 164 166 165 169 169 169 170 168 168 172 169 164 164 161 168 173 164 140 91 99 20 341 343 357 246 206 213 207 194 187
142 147 165 182 181 167 167 166 166 168 168 168 168 170 170 171 175 175 174 171 176 177 177 172 168 172 170 177 201 194 183 226 75 341 311 312 308 263 224 226 240 219 200
120 125 156 180 181 173 169 169 171 174 174 173 173 173 174 175 179 180 179 176 177 180 182 180 177 176 182 190 213 214 226 250 206 317 324 325 309 270 220 227 235 244 212
111 129 148 178 183 171 170 173 178 181 179 178 178 177 177 179 183 184 181 181 183 182 185 188 187 186 189 196 215 222 231 251 335 281 262 263 295 292 223 221 236 238 242
112 148 148 187 170 164 145 173 181 190 187 181 181 184 176 181 186 189 187 189 188 190 189 194 194 195 195 203 219 230 240 219 228 246 272 296 307 287 250 223 228 238 241
176 186 175 179 179 167 160 160 155 180 185 192 190 190 192 194 180 184 187 200 197 197 195 200 200 200 207 186 219 233 228 227 234 263 259 264 255 262 258 233 231 249 242
188 179 191 187 191 175 168 151 149 152 182 200 175 169 202 208 186 183 178 192 203 204 204 203 204 197 198 188 206 218 233 237 231 254 250 259 262 264 257 240 233 238 258
195 191 192 180 180 175 143 153 160 175 166 183 168 165 173 165 193 198 201 195 199 190 195 209 196 195 196 206 204 215 229 236 227 253 258 262 252 255 249 240 231 228 238
189 208 177 188 197 182 172 163 168 197 177 176 185 177 182 178 189 189 206 201 207 177 198 209 201 200 204 214 214 219 225 233 237 245 250 251 256 249 246 236 237 234 245
186 202 166 197 203 186 187 191 188 188 197 183 196 197 193 196 191 199 205 209 211 195 194 208 198 204 212 210 220 219 225 224 235 236 245 254 256 249 248 230 224 235 236
206 219 176 185 197 190 206 196 205 203 200 201 206 204 198 198 195 200 208 204 216 192 181 198 191 194 210 220 227 219 218 224 235 237 237 244 251 251 237 221 214 232 242
205 188 202 186 194 206 213 201 209 198 188 187 220 198 216 211 196 195 206 209 202 178 187 199 190 208 222 215 228 225 216 219 234 235 239 238 243 234 241 223 214 229 231
227 195 184 192 193 203 212 234 187 252 224 199 188 200 188 203 189 190 205 201 179 183 192 192 201 202 206 221 228 227 220 222 230 236 236 226 224 210 209 239 228 237 236
257 225 233 194 196 186 166 179 172 198 222 236 206 190 172 187 181 194 200 183 176 179 189 190 197 201 203 209 222 228 221 223 226 228 238 214 215 219 222 221 241 247 248
292 259 217 217 214 187 165 163 184 215 212 209 212 161 177 186 179 192 199 181 174 195 201 189 185 189 210 166 134 251 247 226 224 221 221 206 220 227 233 236 238 234 240
301 294 265 226 233 214 202 200 174 179 197 184 171 183 173 181 194 189 195 184 186 195 185 181 186 179 188 175 165 148 296 322 236 237 190 211 228 220 237 240 235 231 233
310 312 301 265 239 236 218 149 84 44 55 140 189 198 201 186 189 200 189 183 187 191 198 191 193 185 181 192 209 166 136 216 269 24 119 222 230 231 247 237 224 228 233
286 295 293 289 281 267 211 190 189 211 219 216 232 201 187 187 199 194 188 189 193 193 196 194 188 191 152 179 207 240 175 147 161 159 318 285 280 239 224 212 219 230 232
298 287 281 282 279 266 238 211 213 230 232 238 178 184 186 190 195 191 193 189 193 196 202 181 174 175 196 174 189 155 193 133 130 134 205 250 284 250 215 216 226 239 241
278 262 272 273 257 265 253 228 221 231 224 208 195 198 200 187 187 194 187 195 199 196 186 180 175 183 195 191 197 168 159 168 181 154 189 178 206 254 259 234 251 273 262